Time,TemperatureF,DewpointF,PressureIn,WindDirection,WindDirectionDegrees,WindSpeedMPH,WindSpeedGustMPH,Humidity,HourlyPrecipIn,Conditions,Clouds,dailyrainin,SolarRadiationWatts/m^2,SoftwareType,DateUTC
2013-04-08 00:11:00,47.4,37.0,29.87,ENE,78,1.0,5.0,67,0.00,,,0.00,0,weatherlink.com 1.10,2013-04-08 04:11:00,
2013-04-08 00:26:00,47.1,37.0,29.87,ENE,60,1.0,7.0,68,0.00,,,0.00,0,weatherlink.com 1.10,2013-04-08 04:26:00,
2013-04-08 00:57:00,46.2,37.0,29.86,ENE,76,3.0,11.0,70,0.00,,,0.00,0,weatherlink.com 1.10,2013-04-08 04:57:00,
2013-04-08 01:12:00,45.8,37.0,29.86,ENE,58,5.0,7.0,70,0.00,,,0.00,0,weatherlink.com 1.10,2013-04-08 05:12:00,
2013-04-08 01:27:00,45.2,36.0,29.86,ENE,61,5.0,8.0,71,0.00,,,0.00,0,weatherlink.com 1.10,2013-04-08 05:27:00,
2013-04-08 01:42:00,45.0,36.0,29.86,East,97,6.0,8.0,72,0.00,,,0.00,0,weatherlink.com 1.10,2013-04-08 05:42:00,
2013-04-08 01:57:00,44.7,36.0,29.86,East,82,2.0,8.0,72,0.00,,,0.00,0,weatherlink.com 1.10,2013-04-08 05:57:00,
2013-04-08 02:12:00,44.6,36.0,29.86,ENE,76,2.0,7.0,73,0.00,,,0.00,0,weatherlink.com 1.10,2013-04-08 06:12:00,
2013-04-08 02:27:00,44.5,36.0,29.86,ESE,110,4.0,5.0,73,0.00,,,0.00,0,weatherlink.com 1.10,2013-04-08 06:27:00,
2013-04-08 02:42:00,44.3,36.0,29.86,ESE,116,4.0,7.0,73,0.00,,,0.00,0,weatherlink.com 1.10,2013-04-08 06:42:00,
2013-04-08 02:57:00,43.9,36.0,29.85,East,93,5.0,7.0,74,0.00,,,0.00,0,weatherlink.com 1.10,2013-04-08 06:57:00,
2013-04-08 03:13:00,43.8,36.0,29.85,ESE,107,4.0,5.0,74,0.00,,,0.00,0,weatherlink.com 1.10,2013-04-08 07:13:00,
2013-04-08 03:28:00,43.9,36.0,29.83,ESE,112,4.0,8.0,74,0.00,,,0.00,0,weatherlink.com 1.10,2013-04-08 07:28:00,
2013-04-08 03:43:00,44.0,36.0,29.83,East,100,3.0,7.0,74,0.00,,,0.00,0,weatherlink.com 1.10,2013-04-08 07:43:00,
2013-04-08 03:58:00,44.4,36.0,29.82,East,87,3.0,8.0,73,0.00,,,0.00,0,weatherlink.com 1.10,2013-04-08 07:58:00,
2013-04-08 04:13:00,44.4,36.0,29.82,East,95,3.0,9.0,73,0.00,,,0.00,0,weatherlink.com 1.10,2013-04-08 08:13:00,
2013-04-08 04:28:00,44.5,36.0,29.81,East,79,5.0,7.0,73,0.00,,,0.00,0,weatherlink.com 1.10,2013-04-08 08:28:00,
2013-04-08 04:44:00,44.9,36.0,29.80,ESE,110,4.0,11.0,72,0.00,,,0.00,0,weatherlink.com 1.10,2013-04-08 08:44:00,
2013-04-08 05:00:00,45.3,37.0,29.80,East,79,6.0,8.0,72,0.00,,,0.00,0,weatherlink.com 1.10,2013-04-08 09:00:00,
2013-04-08 05:59:00,46.1,38.0,29.77,ESE,112,2.0,8.0,72,0.00,,,0.00,0,weatherlink.com 1.10,2013-04-08 09:59:00,
2013-04-08 06:45:00,46.9,38.0,29.77,SE,140,4.0,8.0,72,0.00,,,0.00,0,weatherlink.com 1.10,2013-04-08 10:45:00,
2013-04-08 07:00:00,47.1,39.0,29.77,ESE,106,3.0,7.0,73,0.00,,,0.00,0,weatherlink.com 1.10,2013-04-08 11:00:00,
2013-04-08 07:15:00,46.7,41.0,29.77,ESE,116,3.0,9.0,79,0.01,,,0.01,0,weatherlink.com 1.10,2013-04-08 11:15:00,
2013-04-08 07:30:00,45.6,41.0,29.76,East,98,1.0,8.0,84,0.02,,,0.02,0,weatherlink.com 1.10,2013-04-08 11:30:00,
2013-04-08 07:45:00,45.2,42.0,29.76,ESE,109,1.0,9.0,87,0.03,,,0.03,9,weatherlink.com 1.10,2013-04-08 11:45:00,
2013-04-08 08:00:00,45.6,43.0,29.76,SE,146,3.0,8.0,89,0.03,,,0.03,9,weatherlink.com 1.10,2013-04-08 12:00:00,
2013-04-08 08:15:00,45.7,43.0,29.75,ESE,108,5.0,13.0,89,0.03,,,0.04,7,weatherlink.com 1.10,2013-04-08 12:15:00,
2013-04-08 08:31:00,46.0,43.0,29.74,SE,140,7.0,13.0,90,0.02,,,0.04,25,weatherlink.com 1.10,2013-04-08 12:31:00,
2013-04-08 08:47:00,46.3,44.0,29.72,ESE,110,4.0,15.0,90,0.02,,,0.05,32,weatherlink.com 1.10,2013-04-08 12:47:00,
2013-04-08 09:01:00,46.5,44.0,29.71,ESE,116,3.0,13.0,91,0.02,,,0.05,47,weatherlink.com 1.10,2013-04-08 13:01:00,
2013-04-08 09:32:00,48.7,47.0,29.69,ESE,120,5.0,13.0,92,0.00,,,0.05,90,weatherlink.com 1.10,2013-04-08 13:32:00,
2013-04-08 09:46:00,49.7,47.0,29.69,SSE,156,5.0,14.0,91,0.00,,,0.05,14,weatherlink.com 1.10,2013-04-08 13:46:00,
2013-04-08 10:01:00,50.5,48.0,29.69,SSE,155,4.0,11.0,91,0.04,,,0.09,44,weatherlink.com 1.10,2013-04-08 14:01:00,
2013-04-08 10:18:00,51.0,49.0,29.67,SSE,147,9.0,11.0,92,0.04,,,0.09,107,weatherlink.com 1.10,2013-04-08 14:18:00,
2013-04-08 10:33:00,53.0,51.0,29.66,SSE,147,7.0,13.0,93,0.04,,,0.09,186,weatherlink.com 1.10,2013-04-08 14:33:00,
2013-04-08 10:47:00,54.8,52.0,29.67,SE,146,8.0,15.0,90,0.04,,,0.09,141,weatherlink.com 1.10,2013-04-08 14:47:00,
2013-04-08 11:03:00,55.2,53.0,29.66,South,182,7.0,13.0,91,0.00,,,0.09,329,weatherlink.com 1.10,2013-04-08 15:03:00,
2013-04-08 11:17:00,56.3,54.0,29.65,SSE,166,3.0,18.0,90,0.00,,,0.09,186,weatherlink.com 1.10,2013-04-08 15:17:00,
2013-04-08 11:33:00,57.3,54.0,29.65,SSW,193,7.0,13.0,89,0.00,,,0.09,438,weatherlink.com 1.10,2013-04-08 15:33:00,
2013-04-08 11:47:00,58.3,55.0,29.65,South,187,7.0,14.0,87,0.00,,,0.09,183,weatherlink.com 1.10,2013-04-08 15:47:00,
2013-04-08 12:03:00,59.8,55.0,29.64,South,175,9.0,20.0,85,0.00,,,0.09,171,weatherlink.com 1.10,2013-04-08 16:03:00,
2013-04-08 12:18:00,62.3,56.0,29.64,SW,233,12.0,21.0,79,0.01,,,0.10,269,weatherlink.com 1.10,2013-04-08 16:18:00,
2013-04-08 12:33:00,63.3,56.0,29.63,SSW,201,9.0,22.0,77,0.01,,,0.10,329,weatherlink.com 1.10,2013-04-08 16:33:00,
2013-04-08 12:48:00,64.3,56.0,29.64,South,191,9.0,26.0,75,0.01,,,0.10,178,weatherlink.com 1.10,2013-04-08 16:48:00,
2013-04-08 13:03:00,64.7,57.0,29.64,SW,230,9.0,30.0,75,0.01,,,0.10,262,weatherlink.com 1.10,2013-04-08 17:03:00,
2013-04-08 13:18:00,65.0,57.0,29.63,SW,223,14.0,26.0,74,0.00,,,0.10,330,weatherlink.com 1.10,2013-04-08 17:18:00,
2013-04-08 13:33:00,65.5,57.0,29.62,WNW,284,14.0,27.0,73,0.00,,,0.10,279,weatherlink.com 1.10,2013-04-08 17:33:00,
2013-04-08 13:49:00,66.5,56.0,29.63,WSW,247,18.0,30.0,69,0.00,,,0.10,995,weatherlink.com 1.10,2013-04-08 17:49:00,
2013-04-08 14:04:00,67.9,55.0,29.63,WSW,238,15.0,29.0,64,0.00,,,0.10,937,weatherlink.com 1.10,2013-04-08 18:04:00,
2013-04-08 14:19:00,68.9,53.0,29.63,WSW,245,17.0,33.0,58,0.00,,,0.10,974,weatherlink.com 1.10,2013-04-08 18:19:00,
2013-04-08 15:19:00,69.9,53.0,29.65,SW,235,7.0,26.0,55,0.00,,,0.10,967,weatherlink.com 1.10,2013-04-08 19:19:00,
2013-04-08 15:35:00,70.3,53.0,29.65,WSW,244,19.0,22.0,55,0.00,,,0.10,756,weatherlink.com 1.10,2013-04-08 19:35:00,
2013-04-08 15:50:00,70.2,54.0,29.66,WNW,285,9.0,26.0,56,0.00,,,0.10,274,weatherlink.com 1.10,2013-04-08 19:50:00,
2013-04-08 16:20:00,71.8,53.0,29.67,WNW,293,7.0,25.0,52,0.00,,,0.10,763,weatherlink.com 1.10,2013-04-08 20:20:00,
2013-04-08 16:35:00,71.8,54.0,29.67,West,270,3.0,21.0,53,0.00,,,0.10,694,weatherlink.com 1.10,2013-04-08 20:35:00,
2013-04-08 16:50:00,71.2,52.0,29.66,West,278,13.0,29.0,51,0.00,,,0.10,693,weatherlink.com 1.10,2013-04-08 20:50:00,
2013-04-08 17:05:00,72.0,53.0,29.67,West,272,12.0,17.0,51,0.00,,,0.10,636,weatherlink.com 1.10,2013-04-08 21:05:00,
2013-04-08 17:21:00,71.7,53.0,29.67,NW,304,2.0,24.0,52,0.00,,,0.10,568,weatherlink.com 1.10,2013-04-08 21:21:00,
2013-04-08 17:51:00,72.0,52.0,29.70,WNW,294,9.0,19.0,50,0.00,,,0.10,446,weatherlink.com 1.10,2013-04-08 21:51:00,
2013-04-08 18:21:00,69.2,53.0,29.72,NW,325,11.0,15.0,56,0.00,,,0.10,120,weatherlink.com 1.10,2013-04-08 22:21:00,
2013-04-08 18:36:00,65.7,52.0,29.74,NNW,348,5.0,13.0,61,0.00,,,0.10,172,weatherlink.com 1.10,2013-04-08 22:36:00,
2013-04-08 18:51:00,63.9,50.0,29.74,NE,47,8.0,15.0,62,0.00,,,0.10,221,weatherlink.com 1.10,2013-04-08 22:51:00,
2013-04-08 19:06:00,62.6,50.0,29.76,North,359,8.0,13.0,63,0.00,,,0.10,165,weatherlink.com 1.10,2013-04-08 23:06:00,
2013-04-08 19:22:00,60.1,49.0,29.77,NNW,328,3.0,14.0,67,0.00,,,0.10,83,weatherlink.com 1.10,2013-04-08 23:22:00,
2013-04-08 19:37:00,58.5,48.0,29.77,North,4,2.0,10.0,69,0.00,,,0.10,63,weatherlink.com 1.10,2013-04-08 23:37:00,
2013-04-08 19:53:00,56.9,48.0,29.78,North,354,4.0,8.0,71,0.00,,,0.10,28,weatherlink.com 1.10,2013-04-08 23:53:00,
2013-04-08 20:08:00,55.8,47.0,29.78,North,4,1.0,9.0,73,0.00,,,0.10,11,weatherlink.com 1.10,2013-04-09 00:08:00,
2013-04-08 20:22:00,55.0,47.0,29.79,North,349,5.0,8.0,74,0.00,,,0.10,0,weatherlink.com 1.10,2013-04-09 00:22:00,
2013-04-08 20:38:00,54.3,47.0,29.79,NNE,27,7.0,7.0,75,0.00,,,0.10,0,weatherlink.com 1.10,2013-04-09 00:38:00,
2013-04-08 20:53:00,53.7,46.0,29.80,NNE,31,3.0,8.0,76,0.00,,,0.10,0,weatherlink.com 1.10,2013-04-09 00:53:00,
2013-04-08 21:07:00,53.2,46.0,29.80,NNE,18,4.0,7.0,77,0.00,,,0.10,0,weatherlink.com 1.10,2013-04-09 01:07:00,
2013-04-08 21:22:00,52.7,46.0,29.81,NNE,15,4.0,6.0,78,0.00,,,0.10,0,weatherlink.com 1.10,2013-04-09 01:22:00,
2013-04-08 21:37:00,52.3,46.0,29.82,NNE,33,1.0,6.0,78,0.00,,,0.10,0,weatherlink.com 1.10,2013-04-09 01:37:00,
2013-04-08 21:53:00,52.1,46.0,29.84,NE,45,2.0,7.0,79,0.00,,,0.10,0,weatherlink.com 1.10,2013-04-09 01:53:00,
2013-04-08 22:08:00,51.6,46.0,29.84,ENE,59,2.0,5.0,80,0.00,,,0.10,0,weatherlink.com 1.10,2013-04-09 02:08:00,
2013-04-08 22:23:00,51.3,45.0,29.86,ENE,62,3.0,5.0,80,0.00,,,0.10,0,weatherlink.com 1.10,2013-04-09 02:23:00,
2013-04-08 22:39:00,50.8,45.0,29.86,ENE,62,3.0,7.0,80,0.00,,,0.10,0,weatherlink.com 1.10,2013-04-09 02:39:00,
2013-04-08 22:53:00,50.3,45.0,29.88,East,95,2.0,5.0,81,0.00,,,0.10,0,weatherlink.com 1.10,2013-04-09 02:53:00,
2013-04-08 23:09:00,49.9,44.0,29.88,East,95,0.0,2.0,81,0.00,,,0.10,0,weatherlink.com 1.10,2013-04-09 03:09:00,
2013-04-08 23:23:00,49.7,44.0,29.89,ENE,78,2.0,5.0,82,0.00,,,0.10,0,weatherlink.com 1.10,2013-04-09 03:23:00,
2013-04-08 23:39:00,49.3,44.0,29.89,ENE,75,0.0,3.0,82,0.00,,,0.10,0,weatherlink.com 1.10,2013-04-09 03:39:00,